MM0ZIF Weather Reports


time (UTC)temp
F
wind
direction
speed
knots
gust
knots
rain 1hr
in
rain 24hr
in
rain mn
in
humidity
%
barometer
mb
20260508045507 44 133 0.9 4.3 0.01 0.25 0.03 95 1000.6
20260508045006 44 126 0.9 2.6 0.01 0.25 0.03 95 1000.9
20260508044507 44 36 0.0 4.3 0.01 0.25 0.03 95 1000.7
20260508044006 44 180 0.9 4.3 0.01 0.25 0.03 95 1000.6
20260508043506 44 157 0.9 4.3 0.01 0.25 0.03 96 1000.7
20260508043007 44 193 0.9 4.3 0.01 0.25 0.03 96 1000.7
20260508042507 44 128 0.9 1.7 0.01 0.25 0.03 96 1000.6
20260508042007 43 210 0.9 2.6 0.01 0.25 0.03 96 1000.5
20260508041507 43 166 0.0 0.0 0.01 0.25 0.03 96 1000.5
20260508041006 43 166 0.0 0.0 0.01 0.25 0.03 96 1000.5
20260508040506 43 166 0.0 0.9 0.01 0.25 0.03 96 1000.6
20260508040007 43 122 0.0 0.9 0.02 0.25 0.03 96 1000.5
20260508035506 43 163 0.0 0.0 0.01 0.24 0.02 96 1000.5
20260508035007 43 311 0.0 0.0 0.01 0.24 0.02 96 1000.3
20260508034506 43 323 0.0 0.9 0.01 0.24 0.02 95 1000.1
20260508034007 44 148 0.0 1.7 0.01 0.24 0.02 95 1000.2
20260508033507 44 200 0.9 4.3 0.01 0.24 0.02 95 1000.1
20260508032506 44 179 3.5 6.1 0.01 0.24 0.02 95 1000.2
20260508032006 44 158 4.3 6.1 0.01 0.24 0.02 94 1000.2
20260508031506 44 146 3.5 5.2 0.01 0.24 0.02 92 1000.1
20260508031006 44 137 4.3 5.2 0.01 0.24 0.02 92 1000.2
20260508030506 44 137 4.3 6.1 0.01 0.24 0.02 92 999.9
20260508025006 44 201 2.6 6.1 0.01 0.23 0.01 91 999.7
20260508024506 44 163 4.3 7.8 0.01 0.23 0.01 92 999.6
20260508023506 44 169 5.2 7.8 0.01 0.23 0.01 93 999.5
20260508023006 44 169 5.2 7.8 0.01 0.23 0.01 93 999.3
20260508022506 44 169 5.2 7.8 0.01 0.23 0.01 93 999.6
20260508022006 45 161 4.3 7.0 0.01 0.23 0.01 92 999.3
20260508021506 45 161 4.3 7.0 0.01 0.23 0.01 92 999.4
20260508021006 45 161 4.3 7.0 0.01 0.23 0.01 92 999.5
20260508020505 45 161 4.3 7.0 0.01 0.23 0.01 92 999.5
20260508020006 45 133 3.5 7.8 0.01 0.23 0.01 92 999.4
20260508015506 45 304 1.7 11.3 0.00 0.22 0.00 90 999.5
20260508015005 45 146 4.3 12.2 0.00 0.22 0.00 90 999.3
20260508014506 45 154 3.5 8.7 0.00 0.22 0.00 89 999.4
20260508014007 44 152 2.6 12.2 0.00 0.22 0.00 90 999.3
20260508013506 44 162 2.6 12.2 0.00 0.22 0.00 90 999.2
20260508013006 45 189 3.5 10.4 0.00 0.22 0.00 90 999.0
20260508012505 45 96 1.7 6.1 0.00 0.22 0.00 91 999.1
20260508012006 45 81 0.9 7.8 0.00 0.22 0.00 91 999.3
20260508011505 45 217 2.6 7.8 0.00 0.22 0.00 91 999.2
20260508010505 45 228 2.6 7.0 0.00 0.22 0.00 90 999.1
20260508010006 46 171 3.5 13.0 0.00 0.22 0.00 89 998.9
20260508005505 46 246 2.6 7.8 0.00 0.22 0.00 88 999.0
20260508005006 46 145 3.5 10.4 0.00 0.22 0.00 88 999.0
20260508004006 46 220 2.6 8.7 0.00 0.22 0.00 88 998.7
20260508003506 46 178 2.6 10.4 0.00 0.22 0.00 88 998.8
20260508003006 45 61 2.6 8.7 0.00 0.22 0.00 89 998.8
20260508002505 45 138 2.6 13.0 0.00 0.22 0.00 89 998.7
20260508002006 45 173 2.6 7.8 0.00 0.22 0.00 89 998.6
20260508001505 45 41 2.6 7.0 0.00 0.22 0.00 87 998.6
20260508000505 45 159 3.5 12.2 0.00 0.22 0.00 86 998.7
20260508000006 45 132 2.6 8.7 0.00 0.22 0.00 87 998.5
20260507235505 45 172 4.3 8.7 0.00 0.22 0.00 87 998.6
20260507234005 46 165 5.2 13.9 0.00 0.22 0.00 87 998.5
20260507233506 46 187 5.2 13.9 0.00 0.22 0.00 87 998.6
20260507233006 46 140 4.3 8.7 0.00 0.22 0.00 88 998.7
20260507232505 45 174 4.3 13.0 0.00 0.22 0.00 88 998.6
20260507232005 45 113 4.3 11.3 0.00 0.22 0.00 90 998.6
20260507231506 45 174 5.2 10.4 0.00 0.22 0.00 90 998.5
20260507231005 45 138 4.3 10.4 0.00 0.22 0.00 90 998.6
20260507230006 45 176 5.2 11.3 0.00 0.22 0.00 89 998.6
20260507225506 46 163 3.5 12.2 0.00 0.22 0.22 89 998.7
20260507224506 46 175 4.3 11.3 0.00 0.22 0.22 86 998.6
20260507224005 46 158 5.2 12.2 0.00 0.22 0.22 86 998.4
20260507223505 46 143 3.5 12.2 0.01 0.23 0.22 87 998.5
20260507223006 46 146 4.3 11.3 0.01 0.23 0.22 86 998.6
20260507222506 46 163 2.6 12.2 0.01 0.25 0.22 87 998.5
20260507222005 46 174 4.3 13.0 0.01 0.29 0.22 87 998.5
20260507221505 46 121 5.2 8.7 0.01 0.30 0.22 88 998.5
20260507221005 46 98 3.5 10.4 0.01 0.31 0.22 89 998.5
20260507220005 46 143 4.3 11.3 0.01 0.32 0.22 90 998.4
20260507215505 46 156 2.6 13.9 0.01 0.33 0.22 91 998.5
20260507215005 46 196 2.6 11.3 0.01 0.33 0.22 91 998.5
20260507214505 46 156 2.6 11.3 0.01 0.34 0.22 91 998.5
20260507214005 47 19 4.3 11.3 0.01 0.34 0.22 89 998.7
20260507213505 47 161 7.0 11.3 0.00 0.33 0.21 88 998.5
20260507213005 47 156 5.2 11.3 0.00 0.33 0.21 88 998.4
20260507212504 46 116 2.6 8.7 0.00 0.33 0.21 88 998.3
20260507212005 46 191 2.6 8.7 0.00 0.33 0.21 88 998.4
20260507211505 46 152 4.3 8.7 0.00 0.33 0.21 88 998.4
20260507210505 46 125 4.3 7.8 0.00 0.33 0.21 88 998.4
20260507210005 46 168 4.3 8.7 0.01 0.33 0.21 88 998.4
20260507205505 46 170 4.3 11.3 0.01 0.33 0.21 89 998.5
20260507205005 46 99 4.3 10.4 0.01 0.33 0.21 90 998.4
20260507204505 46 168 2.6 7.0 0.01 0.33 0.21 90 998.2
20260507204004 46 192 2.6 7.0 0.01 0.33 0.21 91 998.4
20260507203005 46 56 1.7 8.7 0.01 0.33 0.21 91 998.2
20260507202505 46 74 2.6 13.9 0.01 0.33 0.21 91 998.2
20260507202005 46 192 3.5 13.9 0.01 0.33 0.21 91 998.3
20260507201504 46 149 4.3 7.8 0.01 0.33 0.21 91 998.3
20260507200505 47 347 2.6 11.3 0.01 0.33 0.21 89 998.2
20260507200005 48 153 3.5 8.7 0.00 0.32 0.20 86 998.4
20260507195505 48 147 4.3 7.8 0.00 0.32 0.20 84 998.3
20260507195005 48 166 2.6 11.3 0.00 0.32 0.20 83 998.1
20260507194505 48 173 3.5 10.4 0.00 0.32 0.20 83 998.0
20260507194005 48 120 2.6 8.7 0.00 0.32 0.20 84 998.1
20260507193505 48 190 2.6 7.8 0.00 0.32 0.20 84 998.1
20260507193005 48 76 4.3 12.2 0.00 0.32 0.20 83 997.9
20260507192505 48 112 2.6 10.4 0.00 0.32 0.20 83 998.0
20260507192004 48 100 3.5 11.3 0.00 0.32 0.20 83 998.1
20260507191504 48 262 4.3 11.3 0.00 0.32 0.20 82 997.9
20260507191005 48 213 3.5 13.0 0.00 0.32 0.20 84 997.7
20260507190504 48 55 2.6 11.3 0.00 0.32 0.20 86 997.7
20260507190005 48 59 2.6 13.0 0.00 0.32 0.20 87 997.9
20260507185504 48 135 4.3 12.2 0.00 0.32 0.20 88 997.6
20260507185004 48 217 4.3 11.3 0.00 0.32 0.20 90 997.7
20260507184004 48 144 4.3 11.3 0.00 0.32 0.20 90 997.8
20260507183504 49 137 4.3 12.2 0.00 0.32 0.20 89 998.0
20260507183004 49 179 3.5 8.7 0.00 0.32 0.20 89 997.9
20260507182504 49 182 4.3 11.3 0.00 0.32 0.20 90 997.9
20260507182004 49 143 4.3 15.6 0.00 0.32 0.20 89 998.0
20260507181505 49 170 5.2 11.3 0.00 0.32 0.20 88 997.7
20260507181004 49 108 3.5 17.4 0.00 0.32 0.20 88 997.8
20260507180504 49 116 4.3 17.4 0.00 0.32 0.20 88 997.7
20260507180004 49 178 5.2 12.2 0.00 0.32 0.20 88 997.8
20260507175504 50 174 2.6 12.2 0.00 0.32 0.20 87 997.8
20260507175004 50 127 6.1 14.8 0.00 0.32 0.20 85 997.9
20260507174504 50 174 3.5 10.4 0.00 0.32 0.20 86 997.8
20260507174004 50 148 4.3 13.0 0.00 0.32 0.20 85 998.1
20260507173504 50 109 2.6 11.3 0.00 0.32 0.20 87 997.8
20260507172504 50 195 4.3 13.0 0.00 0.32 0.20 89 998.0
20260507172004 50 179 7.0 15.6 0.00 0.32 0.20 89 997.9
20260507171504 50 141 4.3 8.7 0.00 0.32 0.20 90 998.0
20260507171005 50 202 3.5 11.3 0.00 0.32 0.20 90 998.0
20260507170504 49 140 3.5 12.2 0.00 0.32 0.20 90 998.0
20260507165504 49 169 5.2 12.2 0.00 0.32 0.20 92 998.2
20260507165004 49 163 3.5 12.2 0.00 0.32 0.20 92 998.2
20260507164009 48 153 4.3 11.3 0.00 0.32 0.20 92 998.3
20260507163509 48 32 4.3 12.2 0.00 0.32 0.20 93 998.2
20260507163009 49 146 4.3 12.2 0.00 0.32 0.20 93 998.4
20260507162009 49 208 2.6 8.7 0.01 0.32 0.20 93 998.4
20260507161509 48 169 3.5 8.7 0.02 0.32 0.20 94 998.4
20260507161010 49 151 4.3 13.0 0.05 0.32 0.20 94 998.3
20260507160509 48 105 5.2 11.3 0.09 0.32 0.20 94 998.3
20260507160009 48 166 2.6 11.3 0.09 0.32 0.20 94 998.2
20260507155509 48 154 5.2 13.0 0.09 0.32 0.20 95 998.2
20260507155009 48 174 4.3 11.3 0.09 0.32 0.20 95 998.4
20260507154510 47 155 4.3 13.0 0.11 0.32 0.20 96 998.5
20260507154010 47 138 4.3 11.3 0.11 0.32 0.20 96 998.4
20260507153509 47 144 2.6 10.4 0.11 0.32 0.20 96 998.6
20260507153010 47 157 4.3 11.3 0.12 0.32 0.20 96 998.4
20260507152508 47 114 2.6 11.3 0.12 0.32 0.20 96 998.7
20260507152009 47 157 1.7 13.0 0.11 0.31 0.19 96 998.6
20260507151509 47 173 4.3 12.2 0.10 0.30 0.18 96 998.6
20260507151009 47 156 4.3 11.3 0.07 0.27 0.15 95 998.8
20260507150509 48 126 1.7 11.3 0.03 0.23 0.11 95 998.6
20260507150009 48 146 4.3 13.0 0.04 0.23 0.11 95 998.6
20260507145009 48 167 5.2 15.6 0.06 0.23 0.11 95 998.7
20260507144509 48 175 5.2 15.6 0.05 0.21 0.09 94 998.6
20260507144009 48 173 6.1 14.8 0.05 0.21 0.09 95 998.5
20260507143509 48 114 4.3 13.0 0.06 0.21 0.09 95 998.6
20260507143009 48 105 5.2 13.0 0.05 0.20 0.08 95 998.7
20260507142509 48 195 4.3 15.6 0.06 0.20 0.08 95 998.6
20260507142009 48 139 4.3 15.6 0.07 0.20 0.08 95 998.7
20260507141508 47 109 4.3 13.9 0.07 0.20 0.08 95 998.7
20260507141008 47 125 5.2 13.9 0.07 0.20 0.08 95 998.8
20260507140509 47 191 3.5 13.9 0.07 0.20 0.08 95 998.9
20260507140009 47 93 3.5 13.0 0.06 0.19 0.07 94 999.0
20260507135509 47 153 2.6 10.4 0.05 0.18 0.06 94 999.1
20260507135008 47 105 5.2 13.9 0.04 0.17 0.05 93 998.9
20260507134509 47 174 4.3 13.9 0.03 0.16 0.04 92 999.0
20260507134009 47 109 3.5 13.9 0.03 0.16 0.04 93 999.0
20260507133509 48 133 6.1 13.9 0.02 0.15 0.03 94 999.0
20260507132508 49 79 5.2 17.4 0.01 0.14 0.02 92 998.8
20260507132008 49 143 4.3 17.4 0.00 0.13 0.01 91 999.1
20260507131509 49 182 7.0 18.2 0.00 0.13 0.01 90 998.9
20260507130508 49 139 5.2 19.1 0.00 0.13 0.01 89 998.9
20260507130009 49 135 6.1 18.2 0.00 0.13 0.01 89 999.0
20260507125509 49 49 7.0 14.8 0.00 0.13 0.01 89 998.9
20260507124508 49 148 5.2 17.4 0.00 0.13 0.01 89 999.0
20260507124009 49 22 4.3 18.2 0.00 0.13 0.01 89 999.0
20260507123509 50 161 5.2 17.4 0.00 0.13 0.01 88 998.9
20260507123008 50 179 6.1 20.0 0.00 0.13 0.01 84 998.8
20260507122508 51 167 7.8 19.1 0.00 0.13 0.01 83 998.7
20260507122008 51 139 6.1 14.8 0.00 0.13 0.01 82 998.9
20260507121508 51 179 7.8 18.2 0.00 0.13 0.01 84 998.9
20260507121009 50 230 6.1 17.4 0.00 0.13 0.01 87 999.1
20260507120509 50 106 5.2 18.2 0.00 0.13 0.01 86 999.0
20260507115008 49 154 6.1 14.8 0.00 0.13 0.01 89 999.0
20260507114508 49 143 8.7 17.4 0.01 0.13 0.01 90 999.0
20260507114008 49 176 5.2 13.0 0.01 0.13 0.01 89 999.1
20260507113508 49 140 5.2 18.2 0.01 0.13 0.01 87 999.2
20260507113008 49 173 10.4 21.7 0.01 0.13 0.01 87 999.1
20260507112508 49 156 6.1 14.8 0.01 0.13 0.01 88 998.9
20260507112008 49 126 5.2 17.4 0.01 0.13 0.01 90 998.9
20260507111008 49 129 5.2 18.2 0.01 0.13 0.01 88 999.0
20260507110009 49 171 7.8 15.6 0.01 0.13 0.01 87 999.1
20260507105008 49 120 5.2 20.9 0.01 0.13 0.01 88 999.0
20260507104508 49 168 7.0 17.4 0.00 0.12 0.00 88 998.9
20260507104008 49 133 6.1 14.8 0.00 0.12 0.00 88 999.2
20260507103508 50 138 5.2 14.8 0.00 0.12 0.00 88 999.1
20260507103008 49 220 5.2 17.4 0.00 0.12 0.00 89 999.2
20260507102508 48 161 6.1 14.8 0.00 0.12 0.00 90 999.3
20260507102008 48 154 6.1 13.0 0.00 0.12 0.00 91 999.2
20260507101508 48 116 5.2 14.8 0.00 0.12 0.00 93 999.2
20260507101008 48 105 5.2 12.2 0.00 0.12 0.00 92 999.2
20260507100508 48 120 6.1 12.2 0.00 0.12 0.00 92 999.3
20260507095508 47 153 4.3 13.9 0.00 0.12 0.00 92 999.1
20260507095008 47 159 5.2 13.9 0.00 0.12 0.00 91 999.5
20260507094508 47 176 5.2 15.6 0.00 0.12 0.00 91 999.4
20260507094008 48 174 4.3 14.8 0.00 0.12 0.00 89 999.6
20260507093508 49 173 6.1 13.9 0.00 0.12 0.00 87 999.5
20260507093008 49 151 6.1 17.4 0.00 0.12 0.00 84 999.4
20260507092508 49 141 4.3 11.3 0.00 0.12 0.00 84 999.5
20260507092008 49 117 6.1 14.8 0.00 0.12 0.00 83 999.5
20260507090507 48 123 2.6 11.3 0.00 0.12 0.00 85 999.6
20260507090007 48 143 6.1 13.9 0.00 0.12 0.00 86 999.6
20260507085508 48 125 4.3 14.8 0.00 0.12 0.00 86 999.5
20260507085008 47 162 4.3 12.2 0.00 0.12 0.00 87 999.7
20260507084508 47 88 4.3 13.9 0.00 0.12 0.00 87 999.6
20260507084008 47 171 4.3 13.9 0.00 0.12 0.00 87 999.6
20260507082508 48 151 5.2 13.9 0.00 0.12 0.00 85 999.6
20260507082007 48 118 5.2 13.9 0.00 0.12 0.00 85 999.7
20260507081507 49 159 5.2 12.2 0.00 0.12 0.00 84 999.6
20260507081008 49 147 3.5 13.0 0.00 0.12 0.00 84 999.8
20260507080507 48 156 4.3 12.2 0.00 0.12 0.00 84 999.9
20260507080008 48 156 7.0 18.2 0.00 0.12 0.00 84 999.6
20260507075508 48 180 6.1 14.8 0.00 0.12 0.00 84 999.7
20260507075008 48 142 5.2 12.2 0.00 0.12 0.00 84 999.6
20260507074507 48 63 3.5 8.7 0.00 0.12 0.00 85 999.8
20260507074008 48 92 5.2 13.9 0.00 0.12 0.00 85 999.6
20260507073507 48 181 4.3 14.8 0.00 0.12 0.00 84 999.6
20260507073007 48 167 5.2 12.2 0.00 0.12 0.00 83 999.6
20260507072507 48 156 5.2 12.2 0.00 0.12 0.00 83 999.6
20260507072007 47 175 4.3 10.4 0.00 0.12 0.00 83 999.8
20260507071507 47 108 4.3 13.9 0.00 0.12 0.00 84 999.6
20260507070507 47 171 5.2 10.4 0.00 0.12 0.00 85 999.9
20260507070010 47 113 2.6 8.7 0.00 0.12 0.00 86 999.9
20260507065508 47 124 3.5 8.7 0.00 0.12 0.00 86 999.9
20260507065007 47 99 0.9 11.3 0.00 0.12 0.00 87 1000.0
20260507064508 46 118 2.6 8.7 0.00 0.12 0.00 87 1000.1
20260507063507 46 67 2.6 8.7 0.00 0.12 0.00 88 1000.0
20260507063007 46 41 2.6 7.0 0.00 0.12 0.00 88 1000.2
20260507062507 46 152 1.7 7.8 0.00 0.12 0.00 88 1000.1
20260507062007 46 143 2.6 7.0 0.00 0.12 0.00 89 1000.2
20260507061507 46 80 1.7 11.3 0.00 0.12 0.00 89 1000.2
20260507061007 46 111 2.6 7.0 0.00 0.12 0.00 89 1000.2
20260507060008 46 164 2.6 8.7 0.00 0.12 0.00 89 1000.3
20260507055507 46 136 3.5 8.7 0.00 0.12 0.00 89 1000.3
20260507055007 45 154 2.6 7.0 0.00 0.12 0.00 89 1000.3
20260507054507 45 115 2.6 8.7 0.00 0.12 0.00 89 1000.2
20260507054007 45 150 2.6 6.1 0.00 0.12 0.00 89 1000.3
20260507053006 45 171 2.6 7.0 0.00 0.12 0.00 89 1000.4
20260507052507 45 190 1.7 6.1 0.00 0.12 0.00 89 1000.1
20260507052006 45 166 1.7 10.4 0.00 0.12 0.00 89 1000.4
20260507051506 44 148 2.6 7.8 0.00 0.12 0.00 89 1000.4
20260507051007 44 206 1.7 5.2 0.00 0.12 0.00 89 1000.3
20260507050506 44 146 1.7 7.0 0.00 0.12 0.00 89 1000.6